[[{"header":{"parameterUnit":"m.s-1","parameterCategory":1,"la1":30.2991,"la2":30.254,"lo1":-89.0895,"lo2":-89.0444,"dy":0.0017,"dx":0.0017,"nx":28,"ny":28,"refTime":"2023-08-01T21:00:00:Z","depth":0,"parameterNumber":2,"parameterNumberName":"U-component_of_WINDS"},"data":[0,0,0,0,0,0,0,0,0,0,0,0,0,0,0,0,0,0,0,0,0,0,0,0,0,0,0,0,0,0,0,0,0,0,0,0,0,0,0,0,0,0,0,0,0,0,0,0,0,0,0,0,0,0,0,0,0,0,2.2603,2.2603,0,2.2609,2.2609,2.2609,2.2594,2.2593,2.2593,2.2592,2.2597,2.2598,2.2598,0,0,0,0,0,0,0,0,0,0,0,0,0,2.258,2.2581,2.2603,2.2603,2.2604,2.2609,2.2609,2.2609,2.2594,2.2593,2.2593,2.2592,2.2597,2.2598,2.2598,0,0,0,0,0,0,0,0,0,0,0,0,0,2.2588,2.2581,2.2603,2.2597,2.2596,2.2609,2.2609,2.2609,2.2594,2.2593,2.2592,2.2592,2.2597,2.2598,2.2599,2.2618,0,0,2.2601,2.2601,0,0,0,0,0,0,0,0,2.2588,2.2589,2.2598,2.2597,2.2597,2.26,2.2602,2.2612,2.2594,2.2595,2.2592,2.2591,2.2599,2.2599,2.2602,2.2618,2.2618,2.2601,2.2602,2.2602,2.2602,0,0,0,0,0,0,0,2.2587,2.2589,2.2605,2.2598,2.2597,2.2593,2.2594,2.2604,2.26,2.2595,2.2594,2.2594,2.2598,2.2601,2.2602,2.2618,2.2601,2.2602,2.2602,2.2603,2.2651,2.2652,0,0,0,0,0,0,2.2588,2.2589,2.2605,2.2606,2.259,2.2594,2.2595,2.2599,2.26,2.26,2.2595,2.2594,2.26,2.2601,2.2602,2.2625,2.2602,2.2603,2.2603,2.265,2.2651,2.2652,0,0,0,0,0,0,2.2587,2.2589,2.2605,2.2597,2.2599,2.2595,2.2601,2.26,2.2603,2.2601,2.26,2.2598,2.2599,2.2601,2.2614,2.2625,2.2603,2.2604,2.2649,2.265,2.2651,2.2671,0,0,0,0,0,0,2.2587,2.2589,2.2597,2.2597,2.2599,2.2617,2.2602,2.2601,2.2604,2.2603,2.2604,2.2603,2.2599,2.2613,2.2615,2.2626,2.2605,2.2648,2.265,2.2651,2.2669,2.2672,2.2675,0,0,0,0,0,2.2586,2.2602,2.2597,2.2599,2.2608,2.2618,2.2619,2.2614,2.2605,2.2612,2.2611,2.2603,2.2623,2.2614,2.2616,2.2628,2.2647,2.2649,2.2651,2.2668,2.2672,2.2675,0,0,0,0,0,0,2.2602,2.2602,2.2596,2.2613,2.2615,2.2615,2.2624,2.2618,2.2623,2.2621,2.2615,2.2615,2.263,2.263,2.262,2.2646,2.2634,2.2636,2.2646,2.265,2.2653,2.2652,2.2605,0,0,0,0,0,2.2608,2.2616,2.2615,2.2629,2.2631,2.2627,2.2631,2.2627,2.263,2.2631,2.263,2.2633,2.264,2.2645,2.2651,2.2669,2.2669,2.2677,2.2681,2.2683,2.2685,2.2695,2.2699,2.2657,2.2657,2.2657,0,0,2.2619,2.262,2.2625,2.2632,2.2634,2.2643,2.2628,2.2638,2.2644,2.2632,2.2645,2.2645,2.2647,2.2663,2.267,2.2664,2.2697,2.2685,2.2687,2.2688,2.2697,2.2701,2.2705,2.2659,2.2658,2.2658,0,0,2.2644,2.2645,2.2658,2.266,2.2663,2.266,2.2663,2.2664,2.2664,2.2676,2.2668,2.2675,2.2687,2.2689,2.2692,2.2719,2.2712,2.2721,2.2737,2.2746,2.275,2.2753,2.2762,2.2766,2.2723,2.2723,2.2723,0,2.2658,2.2671,2.2665,2.2675,2.2679,2.2669,2.2681,2.2683,2.2688,2.2691,2.2684,2.2699,2.27,2.2716,2.2723,2.2725,2.2728,2.2721,2.275,2.2753,2.2755,2.2765,2.2768,2.2724,2.2724,2.2724,2.2724,0,2.2688,2.2696,2.2706,2.2711,2.2716,2.2727,2.2723,2.2729,2.2724,2.2723,2.2736,2.2737,2.2743,2.2747,2.2742,2.2763,2.2759,2.2751,2.2738,2.276,2.2769,2.2773,2.2726,2.2725,2.2725,2.2725,0,0,2.2723,2.2725,2.2729,2.2731,2.2734,2.2741,2.2752,2.2758,2.2763,2.2767,2.2776,2.2786,2.2779,2.2782,2.2778,2.2787,2.2808,2.2777,2.2777,2.2784,2.2831,2.2838,2.2842,2.2803,2.2804,2.2805,2.2831,0,2.2748,2.2768,2.2763,2.2782,2.279,2.2781,2.279,2.2793,2.2792,2.2799,2.2798,2.2805,2.2795,2.2797,2.2805,2.2804,2.2818,2.2802,2.2812,2.2813,2.2812,2.2846,2.2853,2.2878,2.2834,2.2835,2.2835,0,2.278,2.2786,2.2806,2.2807,2.281,2.2819,2.2825,2.2832,2.2835,2.2833,2.2837,2.2831,2.2842,2.2829,2.2845,2.2834,2.2838,2.2838,2.2839,2.284,2.2826,2.2849,2.2886,2.289,2.2841,2.284,2.284,0,2.2805,2.2817,2.2831,2.2833,2.2835,2.2841,2.2842,2.2845,2.2849,2.2854,2.2857,2.2863,2.2866,2.2871,2.2867,2.2858,2.2883,2.287,2.2883,2.2883,2.2889,2.2888,2.2927,2.2891,2.2891,2.289,2.289,0,2.2834,2.2847,2.2842,2.285,2.2864,2.2859,2.2873,2.2873,2.2875,2.2883,2.2875,2.2883,2.2877,2.2884,2.2881,2.2895,2.2896,2.2895,2.2894,2.2896,2.2897,2.2899,2.2897,2.2891,2.2891,2.2891,2.2891,0,2.2864,2.2861,2.2875,2.2876,2.2877,2.2887,2.2888,2.2896,2.2894,2.2905,2.2907,2.2904,2.2913,2.2909,2.2918,2.2916,2.2933,2.293,2.2932,2.2931,2.2945,2.2944,2.2987,2.2992,2.2952,2.2952,2.2952,0,2.2883,2.2892,2.2894,2.29,2.2901,2.291,2.2914,2.2909,2.2914,2.2918,2.2926,2.2933,2.2939,2.2953,2.2952,2.2959,2.2956,2.297,2.2957,2.2958,2.2956,2.2956,2.2957,2.2973,2.2974,2.2974,2.2974,0,2.2917,2.2915,2.2922,2.2929,2.2934,2.2939,2.2943,2.2948,2.2943,2.2949,2.2958,2.2962,2.2971,2.2979,2.2985,2.2986,2.298,2.2979,2.2982,2.2984,2.2986,2.2986,2.294,2.2978,2.2977,2.2977,2.2977,2.2977,2.2942,2.2951,2.2953,2.2961,2.2964,2.2968,2.2976,2.2975,2.2982,2.299,2.2986,2.2996,2.2999,2.3006,2.3008,2.3016,2.301,2.3015,2.3016,2.3018,2.302,2.2984,2.3017,2.3017,2.3017,2.3017,2.3017,0,2.2976,2.2978,2.2985,2.2991,2.2998,2.2991,2.2995,2.3001,2.301,2.3013,2.302,2.303,2.3037,2.3037,2.3044,2.305,2.3047,2.3052,2.3052,2.3052,2.3024,2.3021,2.3054,2.3054,2.3054,2.3054,2.3054,2.3054,2.2995,2.3009,2.3007,2.3022,2.3024,2.3034,2.3037,2.3041,2.3043,2.3055,2.3061,2.3061,2.3063,2.307,2.3077,2.3076,2.3079,2.3086,2.3084,2.3058,2.3054,2.3051,2.3048,2.3086,2.3086,2.3112,2.3112,2.3112]},{"header":{"parameterUnit":"m.s-1","parameterCategory":1,"la1":30.2991,"la2":30.254,"lo1":-89.0895,"lo2":-89.0444,"dy":0.0017,"dx":0.0017,"nx":28,"ny":28,"refTime":"2023-08-01T21:00:00:Z","depth":0,"parameterNumber":3,"parameterNumberName":"V-component_of_WINDS"},"data":[0,0,0,0,0,0,0,0,0,0,0,0,0,0,0,0,0,0,0,0,0,0,0,0,0,0,0,0,0,0,0,0,0,0,0,0,0,0,0,0,0,0,0,0,0,0,0,0,0,0,0,0,0,0,0,0,0,0,0.6494,0.6493,0,0.6449,0.6448,0.6448,0.6434,0.6434,0.6434,0.6435,0.6387,0.6385,0.6384,0,0,0,0,0,0,0,0,0,0,0,0,0,0.6565,0.6564,0.6494,0.6493,0.6493,0.6449,0.6448,0.6448,0.6434,0.6434,0.6434,0.6435,0.6387,0.6385,0.6384,0,0,0,0,0,0,0,0,0,0,0,0,0,0.6528,0.6563,0.6494,0.6481,0.6479,0.6449,0.6448,0.6447,0.6434,0.6434,0.6434,0.6435,0.6388,0.6386,0.6383,0.6363,0,0,0.6377,0.6376,0,0,0,0,0,0,0,0,0.653,0.6526,0.6483,0.6481,0.648,0.6447,0.6456,0.6419,0.6434,0.6451,0.6435,0.6435,0.6406,0.6403,0.6393,0.6361,0.6359,0.6376,0.6375,0.6374,0.6373,0,0,0,0,0,0,0,0.6533,0.6528,0.6476,0.6482,0.648,0.6476,0.6471,0.6449,0.6427,0.6449,0.6448,0.6443,0.6406,0.6396,0.6392,0.6358,0.6376,0.6374,0.6373,0.6372,0.6304,0.6304,0,0,0,0,0,0,0.6538,0.653,0.6477,0.6475,0.6506,0.6474,0.6469,0.6457,0.6427,0.6423,0.6443,0.6443,0.6399,0.6395,0.6391,0.6363,0.6374,0.6372,0.6371,0.6305,0.6304,0.6304,0,0,0,0,0,0,0.654,0.6534,0.6479,0.6502,0.6495,0.6473,0.646,0.6456,0.6446,0.6423,0.6419,0.6437,0.6399,0.6394,0.637,0.6362,0.6371,0.6369,0.6305,0.6304,0.6304,0.631,0,0,0,0,0,0,0.6542,0.6534,0.6527,0.6502,0.6493,0.646,0.6459,0.6455,0.6443,0.6442,0.6416,0.6412,0.6399,0.6373,0.6367,0.6359,0.6367,0.6306,0.6305,0.6304,0.631,0.6309,0.6309,0,0,0,0,0,0.6544,0.653,0.6527,0.652,0.6484,0.6459,0.6455,0.6441,0.6442,0.6434,0.6419,0.6413,0.6364,0.6371,0.6364,0.6355,0.6306,0.6305,0.6304,0.6311,0.631,0.6309,0,0,0,0,0,0,0.6555,0.6527,0.6523,0.65,0.6482,0.6457,0.6447,0.644,0.6421,0.6421,0.6404,0.6398,0.6375,0.6363,0.6371,0.6332,0.6335,0.6332,0.6342,0.6341,0.634,0.6343,0.6365,0,0,0,0,0,0.6555,0.6538,0.6514,0.6497,0.6488,0.6469,0.6458,0.6448,0.6429,0.6421,0.6404,0.6385,0.6365,0.6352,0.6332,0.6308,0.6302,0.6299,0.6298,0.6297,0.6295,0.628,0.6278,0.63,0.63,0.63,0,0,0.6554,0.6537,0.6527,0.6498,0.6483,0.6465,0.6463,0.6444,0.643,0.6418,0.6394,0.6381,0.6358,0.6334,0.6322,0.6322,0.6288,0.6296,0.6296,0.6294,0.6279,0.6277,0.6275,0.6299,0.6299,0.63,0,0,0.6543,0.6529,0.6512,0.6497,0.6475,0.6462,0.6458,0.6433,0.6424,0.64,0.639,0.6373,0.634,0.6323,0.6311,0.6292,0.6286,0.6286,0.6282,0.6268,0.6266,0.6264,0.6256,0.6254,0.6285,0.6285,0.6285,0,0.6545,0.6518,0.6504,0.6486,0.6473,0.6461,0.6444,0.6429,0.6402,0.6392,0.6393,0.635,0.6334,0.6305,0.63,0.6291,0.6284,0.6289,0.6267,0.6266,0.6264,0.6256,0.6254,0.6285,0.6285,0.6285,0.6285,0,0.6521,0.6502,0.6491,0.6465,0.645,0.6432,0.6415,0.6402,0.6393,0.638,0.6355,0.6335,0.6311,0.6303,0.6295,0.6272,0.6273,0.6271,0.6272,0.6262,0.6255,0.6252,0.6285,0.6285,0.6285,0.6285,0,0,0.6516,0.6481,0.6477,0.6465,0.6438,0.6423,0.6404,0.638,0.6369,0.635,0.6332,0.6304,0.6301,0.6287,0.6276,0.6264,0.6249,0.6263,0.6262,0.626,0.6221,0.6222,0.6219,0.6244,0.6244,0.6243,0.6222,0,0.6501,0.6467,0.6454,0.6425,0.6407,0.6395,0.6378,0.636,0.6347,0.6328,0.6314,0.6293,0.6292,0.6283,0.627,0.6253,0.624,0.6255,0.6227,0.6226,0.6232,0.6215,0.6217,0.6198,0.622,0.6219,0.6219,0,0.648,0.6461,0.6431,0.6405,0.6397,0.6382,0.6359,0.6342,0.632,0.6311,0.6294,0.6285,0.6262,0.6266,0.6234,0.6244,0.6232,0.6222,0.6221,0.6217,0.6221,0.621,0.6192,0.6189,0.6214,0.6215,0.6215,0,0.6478,0.6445,0.6422,0.6411,0.6382,0.6371,0.6358,0.6337,0.6323,0.6302,0.6292,0.6269,0.6256,0.6238,0.6222,0.6226,0.6191,0.6194,0.6182,0.6183,0.6175,0.6176,0.6154,0.6169,0.6169,0.6169,0.6169,0,0.6463,0.6445,0.6421,0.6407,0.6385,0.6369,0.6348,0.6334,0.6315,0.6297,0.6286,0.6269,0.6249,0.6229,0.6216,0.6191,0.6186,0.6177,0.6174,0.6178,0.6179,0.6169,0.6169,0.6168,0.6168,0.6168,0.6168,0,0.6457,0.6441,0.6415,0.6389,0.6381,0.6367,0.6344,0.6329,0.6315,0.6292,0.6286,0.6264,0.624,0.6222,0.6191,0.6182,0.6155,0.6152,0.6163,0.6161,0.615,0.6151,0.6121,0.6115,0.6135,0.6134,0.6134,0,0.6449,0.6434,0.6406,0.6393,0.6381,0.6361,0.6346,0.6329,0.6315,0.6288,0.6276,0.6251,0.6231,0.6193,0.6173,0.6149,0.6145,0.6136,0.6141,0.6145,0.6143,0.6144,0.6142,0.6135,0.6135,0.6134,0.6134,0,0.6434,0.6426,0.6406,0.6383,0.6367,0.6347,0.6328,0.6318,0.6297,0.6281,0.6257,0.6241,0.6209,0.6184,0.6158,0.6143,0.6135,0.6133,0.6129,0.6132,0.6139,0.6134,0.616,0.6134,0.6134,0.6134,0.6134,0.6134,0.6426,0.6412,0.639,0.6368,0.6351,0.6333,0.6317,0.6301,0.6281,0.6254,0.6245,0.6219,0.6196,0.6159,0.6144,0.6123,0.6123,0.6117,0.6116,0.6114,0.6114,0.6143,0.6118,0.6118,0.6118,0.6118,0.6118,0,0.641,0.6395,0.6375,0.6348,0.633,0.6324,0.6302,0.6287,0.6265,0.6244,0.6224,0.6195,0.617,0.6148,0.6123,0.611,0.6105,0.6103,0.6104,0.61,0.6116,0.6122,0.6107,0.6107,0.6107,0.6107,0.6107,0.6108,0.64,0.6376,0.6365,0.6332,0.6316,0.6291,0.6279,0.6262,0.6245,0.6213,0.6193,0.6179,0.6157,0.6129,0.6106,0.61,0.6091,0.609,0.6083,0.6098,0.6099,0.6101,0.6106,0.6088,0.6088,0.6068,0.6068,0.6068]}]]